contact:dominique.lefevre@mio.osupytheas.fr, maurice.libes@osupytheas.fr, didier.mallarino@osupytheas.fr
Project:EMSO http://www.emso-fr.org/EMSO-France
Depth: 2436.0 m
Title:EMSO Ligure Ouest : Data MII capteur AQUADOPP
Date,Latitude,Longitude,X_East,Y_North,Z_Up,Amplitude_X,Amplitude_Y,Amplitude_Z,Batterie,SoundSpeed,Heading,Pitch,Roll,Pressure,TIS,Speed,Direction
, degrees North, degrees East, m.s-1, m.s-1,m.s-1, 1, 1, 1, Volt, m.s-1, degree, degree, degree, dbar, degree_C, m.s-1, degree
2023-06-29T00:04:03,42.805,6.029,0.026,0.03,0.021,102.0,106.0,101.0,13.3,1505.2,327.8,-0.8,1.8,2471.487,13.28,0.039,40.9
2023-06-29T00:07:03,42.805,6.029,0.036,0.02,0.0,101.0,106.0,101.0,13.3,1505.2,343.1,-0.8,1.8,2471.488,13.28,0.041,60.9
2023-06-29T00:10:03,42.805,6.029,-0.01,0.036,-0.035,102.0,107.0,101.0,13.3,1505.2,322.7,-0.8,1.8,2471.495,13.28,0.037,344.5
2023-06-29T00:13:03,42.805,6.029,0.003,0.022,-0.035,101.0,106.0,101.0,13.3,1505.2,330.3,-0.8,1.8,2471.455,13.29,0.022,7.8
2023-06-29T00:16:03,42.805,6.029,0.02,0.01,-0.027,101.0,105.0,101.0,13.4,1505.2,331.3,-0.8,1.8,2471.478,13.29,0.022,63.4
2023-06-29T00:19:03,42.805,6.029,0.019,0.023,0.02,101.0,105.0,101.0,13.3,1505.2,342.3,-0.8,1.8,2471.477,13.29,0.029,39.6
2023-06-29T00:22:03,42.805,6.029,0.003,0.062,0.042,102.0,104.0,101.0,13.3,1505.2,339.5,-0.8,1.8,2471.464,13.29,0.062,2.8
2023-06-29T00:25:03,42.805,6.029,-0.002,0.021,-0.01,103.0,107.0,101.0,13.3,1505.2,327.8,-0.8,1.8,2471.474,13.29,0.021,354.6
2023-06-29T00:28:03,42.805,6.029,0.003,-0.005,-0.031,101.0,106.0,101.0,13.3,1505.2,348.2,-0.7,1.8,2471.467,13.29,0.005,149.0
2023-06-29T00:31:03,42.805,6.029,0.002,0.02,-0.016,101.0,107.0,101.0,13.4,1505.2,340.8,-0.8,1.8,2471.454,13.29,0.02,5.7
2023-06-29T00:34:03,42.805,6.029,0.065,0.011,0.055,102.0,106.0,100.0,13.3,1505.2,333.8,-0.8,1.8,2471.485,13.29,0.065,80.4
2023-06-29T00:37:03,42.805,6.029,-0.008,0.027,-0.03,101.0,108.0,101.0,13.3,1505.2,330.3,-0.8,1.8,2471.487,13.29,0.028,343.5
2023-06-29T00:40:03,42.805,6.029,0.031,0.018,0.016,101.0,106.0,100.0,13.3,1505.2,348.4,-0.7,1.8,2471.447,13.29,0.035,59.9
2023-06-29T00:43:03,42.805,6.029,0.034,0.038,0.012,101.0,106.0,100.0,13.3,1505.2,343.4,-0.8,1.8,2471.474,13.29,0.05,41.8
2023-06-29T00:46:03,42.805,6.029,0.048,0.006,-0.021,101.0,106.0,100.0,13.4,1505.2,343.1,-0.8,1.8,2471.49,13.29,0.048,82.9
2023-06-29T00:49:03,42.805,6.029,0.039,0.046,0.04,101.0,107.0,100.0,13.4,1505.2,343.3,-0.7,1.8,2471.496,13.29,0.06,40.3
2023-06-29T00:52:03,42.805,6.029,0.031,0.011,0.021,101.0,107.0,101.0,13.4,1505.2,336.0,-0.8,1.8,2471.425,13.29,0.032,70.5
2023-06-29T00:55:03,42.805,6.029,0.054,0.01,0.038,103.0,105.0,100.0,13.3,1505.2,353.1,-0.7,1.8,2471.494,13.29,0.054,79.5
2023-06-29T00:58:03,42.805,6.029,0.017,0.04,0.005,101.0,107.0,100.0,13.3,1505.2,342.8,-0.8,1.8,2471.502,13.29,0.043,23.0
2023-06-29T01:04:03,42.805,6.029,0.029,0.079,0.011,102.0,107.0,103.0,13.4,1505.2,338.5,-0.8,1.8,2471.528,13.28,0.084,20.2
2023-06-29T01:07:03,42.805,6.029,-0.029,0.026,-0.031,104.0,105.0,102.0,13.4,1505.2,335.0,-0.7,1.8,2471.485,13.28,0.038,311.9
2023-06-29T01:10:03,42.805,6.029,0.041,0.02,0.019,101.0,106.0,101.0,13.4,1505.2,349.3,-0.7,1.8,2471.5,13.28,0.045,64.0
2023-06-29T01:13:03,42.805,6.029,0.0,0.043,-0.021,101.0,108.0,100.0,13.3,1505.2,327.8,-0.8,1.8,2471.54,13.29,0.043,0.0
2023-06-29T01:16:03,42.805,6.029,0.0,0.034,0.0,103.0,106.0,100.0,13.3,1505.2,336.6,-0.7,1.8,2471.501,13.29,0.034,0.0
2023-06-29T01:19:03,42.805,6.029,0.042,0.001,-0.006,101.0,106.0,101.0,13.4,1505.2,342.2,-0.8,1.8,2471.481,13.29,0.042,88.6
2023-06-29T01:22:03,42.805,6.029,0.023,0.026,-0.032,100.0,108.0,101.0,13.3,1505.2,340.0,-0.7,1.8,2471.469,13.29,0.034,41.5
2023-06-29T01:25:03,42.805,6.029,0.039,-0.002,-0.004,103.0,105.0,100.0,13.4,1505.2,350.5,-0.8,1.8,2471.484,13.29,0.039,92.9
2023-06-29T01:28:03,42.805,6.029,0.067,0.029,0.035,101.0,107.0,101.0,13.4,1505.2,333.0,-0.8,1.8,2471.498,13.29,0.073,66.6
2023-06-29T01:31:03,42.805,6.029,0.035,0.044,-0.014,101.0,108.0,101.0,13.3,1505.2,330.8,-0.8,1.8,2471.435,13.29,0.056,38.5
2023-06-29T01:34:03,42.805,6.029,0.061,0.007,0.031,100.0,108.0,100.0,13.3,1505.2,347.1,-0.7,1.8,2471.472,13.29,0.061,83.5
2023-06-29T01:37:03,42.805,6.029,0.031,0.044,0.045,102.0,106.0,101.0,13.4,1505.2,333.8,-0.8,1.8,2471.48,13.29,0.053,35.2
2023-06-29T01:40:03,42.805,6.029,0.046,0.012,0.023,101.0,106.0,100.0,13.4,1505.2,351.7,-0.8,1.8,2471.498,13.29,0.047,75.4
2023-06-29T01:43:03,42.805,6.029,-0.02,0.0,-0.04,100.0,108.0,100.0,13.4,1505.2,330.2,-0.8,1.8,2471.541,13.29,0.02,270.0
2023-06-29T01:46:03,42.805,6.029,0.004,0.033,0.001,102.0,106.0,101.0,13.4,1505.2,334.7,-0.7,1.8,2471.494,13.29,0.033,6.9
2023-06-29T01:49:03,42.805,6.029,0.031,0.016,-0.022,102.0,108.0,100.0,13.4,1505.2,332.9,-0.8,1.8,2471.488,13.29,0.034,62.7
2023-06-29T01:52:03,42.805,6.029,-0.003,0.016,-0.034,102.0,108.0,101.0,13.4,1505.2,331.0,-0.7,1.8,2471.493,13.29,0.016,349.4
2023-06-29T01:55:03,42.805,6.029,0.009,0.034,-0.019,103.0,109.0,100.0,13.4,1505.2,326.8,-0.7,1.8,2471.494,13.29,0.035,14.8
2023-06-29T01:58:03,42.805,6.029,0.048,0.016,0.013,100.0,106.0,101.0,13.4,1505.2,347.7,-0.8,1.8,2471.482,13.29,0.05,71.6
2023-06-29T02:04:03,42.805,6.029,0.03,0.032,-0.018,102.0,106.0,101.0,13.4,1505.2,324.0,-0.8,1.8,2471.544,13.28,0.043,43.1
2023-06-29T02:07:03,42.805,6.029,0.007,0.033,-0.051,102.0,106.0,100.0,13.4,1505.2,334.8,-0.8,1.9,2471.535,13.28,0.033,12.0
2023-06-29T02:10:03,42.805,6.029,0.051,0.02,0.0,102.0,106.0,102.0,13.4,1505.2,333.8,-0.7,1.8,2471.502,13.28,0.054,68.6
2023-06-29T02:13:03,42.805,6.029,0.029,0.004,-0.013,102.0,106.0,102.0,13.4,1505.2,347.9,-0.7,1.8,2471.521,13.29,0.029,82.2
2023-06-29T02:16:03,42.805,6.029,0.02,0.039,0.01,102.0,108.0,100.0,13.4,1505.2,343.4,-0.8,1.8,2471.514,13.29,0.043,27.1
2023-06-29T02:19:03,42.805,6.029,0.072,0.013,0.02,101.0,106.0,100.0,13.3,1505.2,324.6,-0.8,1.8,2471.498,13.29,0.073,79.8
2023-06-29T02:22:03,42.805,6.029,0.025,0.018,-0.042,104.0,106.0,100.0,13.4,1505.2,331.2,-0.8,1.8,2471.468,13.29,0.03,54.2
2023-06-29T02:25:03,42.805,6.029,0.044,0.037,0.016,102.0,108.0,100.0,13.4,1505.2,327.6,-0.8,1.8,2471.479,13.29,0.057,49.9
2023-06-29T02:28:03,42.805,6.029,0.06,0.02,0.018,102.0,106.0,100.0,13.4,1505.2,342.5,-0.7,1.8,2471.474,13.29,0.063,71.6
2023-06-29T02:31:03,42.805,6.029,0.009,0.011,-0.025,103.0,107.0,100.0,13.4,1505.2,342.2,-0.8,1.8,2471.511,13.29,0.014,39.3
2023-06-29T02:34:03,42.805,6.029,0.041,-0.003,-0.01,103.0,105.0,101.0,13.4,1505.2,345.9,-0.8,1.8,2471.529,13.29,0.041,94.2
2023-06-29T02:37:03,42.805,6.029,0.02,0.033,-0.02,101.0,108.0,101.0,13.4,1505.2,320.3,-0.8,1.8,2471.493,13.29,0.038,31.2
2023-06-29T02:40:03,42.805,6.029,0.011,0.036,-0.02,100.0,107.0,100.0,13.4,1505.2,341.2,-0.7,1.8,2471.498,13.29,0.037,17.0
2023-06-29T02:43:03,42.805,6.029,0.042,0.004,0.036,102.0,106.0,101.0,13.3,1505.2,351.8,-0.8,1.8,2471.491,13.29,0.042,84.6
2023-06-29T02:46:03,42.805,6.029,0.059,0.023,0.009,102.0,107.0,101.0,13.4,1505.2,320.3,-0.8,1.8,2471.497,13.29,0.063,68.7
2023-06-29T02:49:03,42.805,6.029,0.025,0.023,0.03,103.0,105.0,102.0,13.4,1505.2,329.0,-0.8,1.8,2471.474,13.29,0.033,47.4
2023-06-29T02:52:03,42.805,6.029,0.04,-0.002,0.001,104.0,105.0,101.0,13.4,1505.2,349.9,-0.8,1.8,2471.477,13.29,0.04,92.9
2023-06-29T02:55:03,42.805,6.029,0.054,0.017,0.004,103.0,104.0,102.0,13.4,1505.2,323.4,-0.8,1.8,2471.49,13.29,0.056,72.5
2023-06-29T02:58:03,42.805,6.029,0.039,0.025,-0.003,103.0,107.0,100.0,13.4,1505.2,329.0,-0.8,1.8,2471.479,13.29,0.046,57.3
2023-06-29T03:04:11,42.805,6.029,0.045,0.031,0.013,101.0,106.0,101.0,13.3,1505.2,335.6,-0.8,1.8,2471.535,13.28,0.054,55.4
2023-06-29T03:07:03,42.805,6.029,0.027,0.019,-0.017,103.0,106.0,101.0,13.4,1505.2,334.3,-0.8,1.8,2471.52,13.28,0.033,54.9
2023-06-29T03:10:03,42.805,6.029,0.033,0.002,-0.022,101.0,106.0,101.0,13.4,1505.2,347.1,-0.8,1.8,2471.535,13.28,0.033,86.5
2023-06-29T03:13:03,42.805,6.029,0.042,0.012,0.009,102.0,106.0,99.0,13.4,1505.2,323.4,-0.8,1.8,2471.535,13.28,0.043,74.1
2023-06-29T03:16:03,42.805,6.029,0.039,0.024,-0.004,101.0,107.0,100.0,13.4,1505.2,334.4,-0.8,1.8,2471.495,13.29,0.045,58.4
2023-06-29T03:19:03,42.805,6.029,0.054,0.04,0.014,101.0,106.0,101.0,13.4,1505.2,343.1,-0.8,1.8,2471.501,13.29,0.067,53.5
2023-06-29T03:22:03,42.805,6.029,0.021,0.013,-0.045,102.0,106.0,100.0,13.3,1505.2,332.6,-0.8,1.8,2471.512,13.29,0.024,58.2
2023-06-29T03:25:03,42.805,6.029,0.038,0.013,0.017,101.0,106.0,101.0,13.3,1505.2,324.5,-0.8,1.8,2471.49,13.29,0.04,71.1
2023-06-29T03:28:03,42.805,6.029,0.017,0.027,0.014,101.0,106.0,100.0,13.4,1505.2,334.8,-0.7,1.8,2471.504,13.29,0.031,32.2
2023-06-29T03:31:03,42.805,6.029,0.036,0.011,-0.014,102.0,105.0,101.0,13.3,1505.2,338.4,-0.8,1.8,2471.498,13.29,0.037,73.0
2023-06-29T03:34:03,42.805,6.029,0.051,0.007,0.012,102.0,106.0,100.0,13.4,1505.2,350.5,-0.8,1.8,2471.517,13.29,0.051,82.2
2023-06-29T03:37:03,42.805,6.029,0.023,0.044,0.01,102.0,106.0,100.0,13.4,1505.2,324.2,-0.8,1.8,2471.471,13.29,0.049,27.6
2023-06-29T03:40:03,42.805,6.029,0.061,-0.016,0.013,102.0,107.0,100.0,13.4,1505.2,341.5,-0.7,1.8,2471.498,13.29,0.063,104.7
2023-06-29T03:43:03,42.805,6.029,0.008,0.049,-0.019,102.0,104.0,101.0,13.4,1505.2,330.6,-0.7,1.8,2471.49,13.29,0.049,9.3
2023-06-29T03:46:03,42.805,6.029,0.006,0.03,-0.019,102.0,106.0,100.0,13.3,1505.2,324.1,-0.8,1.8,2471.493,13.29,0.03,11.3
2023-06-29T03:49:03,42.805,6.029,0.032,-0.004,-0.04,102.0,105.0,100.0,13.3,1505.2,350.5,-0.8,1.8,2471.486,13.29,0.032,97.1
2023-06-29T03:52:03,42.805,6.029,0.017,0.041,-0.006,102.0,106.0,101.0,13.4,1505.2,343.0,-0.8,1.8,2471.499,13.29,0.044,22.5
2023-06-29T03:55:03,42.805,6.029,0.085,0.007,0.026,101.0,105.0,101.0,13.4,1505.2,344.7,-0.8,1.8,2471.498,13.29,0.085,85.3
2023-06-29T03:58:03,42.805,6.029,0.019,0.011,0.005,101.0,106.0,100.0,13.3,1505.2,333.9,-0.8,1.8,2471.517,13.29,0.021,59.9
2023-06-29T04:04:03,42.805,6.029,0.071,-0.037,0.044,102.0,106.0,100.0,13.3,1505.2,353.5,-0.7,1.8,2471.554,13.28,0.08,117.5
2023-06-29T04:07:03,42.805,6.029,0.024,0.022,0.0,102.0,107.0,100.0,13.4,1505.2,341.2,-0.8,1.8,2471.535,13.28,0.032,47.5
2023-06-29T04:10:03,42.805,6.029,0.037,0.024,0.035,102.0,105.0,100.0,13.4,1505.2,325.3,-0.8,1.8,2471.52,13.28,0.044,57.0
2023-06-29T04:13:03,42.805,6.029,0.039,0.006,0.011,102.0,105.0,101.0,13.4,1505.2,342.3,-0.8,1.8,2471.529,13.28,0.039,81.3
2023-06-29T04:16:03,42.805,6.029,0.019,0.04,-0.005,100.0,106.0,101.0,13.3,1505.2,353.1,-0.8,1.8,2471.496,13.29,0.044,25.4
2023-06-29T04:19:03,42.805,6.029,0.018,-0.008,-0.023,101.0,106.0,100.0,13.4,1505.2,324.8,-0.8,1.8,2471.508,13.29,0.019,114.0
2023-06-29T04:22:03,42.805,6.029,0.044,0.016,0.03,102.0,104.0,102.0,13.3,1505.2,339.5,-0.7,1.8,2471.503,13.29,0.046,70.0
2023-06-29T04:25:03,42.805,6.029,0.028,0.021,-0.024,101.0,106.0,100.0,13.3,1505.2,341.8,-0.7,1.8,2471.48,13.29,0.035,53.1
2023-06-29T04:28:03,42.805,6.029,0.007,0.012,-0.021,101.0,106.0,101.0,13.3,1505.2,323.1,-0.8,1.8,2471.467,13.29,0.013,30.3
2023-06-29T04:31:03,42.805,6.029,0.028,0.014,0.015,102.0,107.0,99.0,13.4,1505.2,336.6,-0.7,1.9,2471.483,13.29,0.031,63.4
2023-06-29T04:34:03,42.805,6.029,0.024,0.028,-0.028,101.0,105.0,100.0,13.4,1505.2,321.7,-0.7,1.8,2471.507,13.29,0.036,40.6
2023-06-29T04:37:03,42.805,6.029,0.013,0.003,-0.017,102.0,106.0,100.0,13.3,1505.2,341.2,-0.8,1.8,2471.501,13.29,0.013,77.0
2023-06-29T04:40:03,42.805,6.029,0.007,0.029,-0.001,101.0,106.0,99.0,13.4,1505.2,348.2,-0.7,1.8,2471.47,13.29,0.029,13.6
2023-06-29T04:43:03,42.805,6.029,0.05,0.003,-0.016,101.0,107.0,100.0,13.4,1505.2,320.3,-0.8,1.8,2471.482,13.29,0.05,86.6
2023-06-29T04:46:03,42.805,6.029,0.007,0.018,-0.007,101.0,105.0,100.0,13.4,1505.2,331.2,-0.8,1.8,2471.477,13.29,0.019,21.2
2023-06-29T04:49:03,42.805,6.029,0.035,0.013,0.025,101.0,105.0,100.0,13.4,1505.2,339.1,-0.8,1.8,2471.485,13.29,0.037,69.6
2023-06-29T04:52:03,42.805,6.029,0.059,0.012,0.035,101.0,106.0,102.0,13.4,1505.2,341.9,-0.7,1.8,2471.501,13.29,0.06,78.5
2023-06-29T04:55:03,42.805,6.029,0.021,-0.009,-0.033,102.0,106.0,100.0,13.3,1505.2,349.3,-0.8,1.8,2471.478,13.29,0.022,113.2
2023-06-29T04:58:03,42.805,6.029,0.007,0.003,-0.036,102.0,106.0,100.0,13.3,1505.2,322.2,-0.8,1.8,2471.514,13.29,0.007,66.8
2023-06-29T05:04:03,42.805,6.029,0.015,0.037,0.026,101.0,106.0,101.0,13.4,1505.2,325.3,-0.8,1.8,2471.551,13.28,0.039,22.1
2023-06-29T05:07:03,42.805,6.029,0.051,0.003,0.036,103.0,105.0,100.0,13.4,1505.2,336.1,-0.8,1.8,2471.517,13.28,0.051,86.6
2023-06-29T05:10:03,42.805,6.029,0.062,-0.007,-0.007,102.0,107.0,101.0,13.4,1505.2,349.5,-0.8,1.8,2471.517,13.28,0.062,96.4
2023-06-29T05:13:03,42.805,6.029,0.045,-0.021,-0.025,100.0,106.0,101.0,13.3,1505.2,349.7,-0.7,1.8,2471.511,13.29,0.049,115.0
2023-06-29T05:16:03,42.805,6.029,0.011,0.035,0.001,102.0,104.0,101.0,13.3,1505.2,346.7,-0.8,1.8,2471.505,13.29,0.036,17.4
2023-06-29T05:19:03,42.805,6.029,0.048,0.021,-0.001,102.0,106.0,100.0,13.4,1505.2,322.5,-0.8,1.8,2471.498,13.29,0.052,66.4
2023-06-29T05:22:03,42.805,6.029,0.066,0.005,0.041,102.0,106.0,100.0,13.4,1505.2,343.7,-0.8,1.9,2471.507,13.29,0.066,85.7
2023-06-29T05:25:03,42.805,6.029,0.016,0.022,-0.016,102.0,105.0,101.0,13.4,1505.2,340.8,-0.8,1.8,2471.5,13.29,0.027,36.0
2023-06-29T05:28:03,42.805,6.029,0.05,0.016,0.012,102.0,106.0,101.0,13.4,1505.2,339.1,-0.8,1.8,2471.437,13.29,0.052,72.3
2023-06-29T05:31:03,42.805,6.029,0.057,0.005,0.029,103.0,105.0,100.0,13.4,1505.2,341.2,-0.7,1.8,2471.457,13.29,0.057,85.0
2023-06-29T05:34:03,42.805,6.029,0.03,0.006,-0.005,102.0,104.0,103.0,13.4,1505.2,329.3,-0.7,1.8,2471.484,13.29,0.03,78.7
2023-06-29T05:37:03,42.805,6.029,0.068,0.014,0.049,103.0,106.0,100.0,13.3,1505.2,340.8,-0.8,1.8,2471.484,13.29,0.069,78.4
2023-06-29T05:40:03,42.805,6.029,0.029,-0.001,-0.03,101.0,107.0,100.0,13.4,1505.2,340.6,-0.7,1.9,2471.461,13.29,0.029,92.0
2023-06-29T05:43:03,42.805,6.029,0.039,0.001,0.021,102.0,105.0,101.0,13.4,1505.2,344.6,-0.8,1.8,2471.467,13.29,0.039,88.5
2023-06-29T05:46:03,42.805,6.029,0.05,0.019,0.027,101.0,106.0,101.0,13.4,1505.2,335.0,-0.8,1.8,2471.5,13.29,0.053,69.2
2023-06-29T05:49:03,42.805,6.029,0.07,0.032,0.061,100.0,107.0,100.0,13.4,1505.2,328.5,-0.8,1.8,2471.494,13.29,0.076,65.4
2023-06-29T05:52:03,42.805,6.029,0.057,0.0,0.024,102.0,104.0,102.0,13.4,1505.2,351.8,-0.7,1.8,2471.465,13.29,0.057,90.0
2023-06-29T05:55:03,42.805,6.029,0.03,0.004,-0.008,101.0,106.0,100.0,13.4,1505.2,340.0,-0.8,1.8,2471.447,13.29,0.03,82.4
2023-06-29T05:58:03,42.805,6.029,0.033,-0.014,-0.02,102.0,105.0,100.0,13.3,1505.2,329.7,-0.7,1.8,2471.47,13.29,0.035,113.0
2023-06-29T06:04:03,42.805,6.029,0.002,0.025,0.0,102.0,105.0,101.0,13.4,1505.2,332.5,-0.8,1.8,2471.535,13.28,0.025,4.6
2023-06-29T06:07:03,42.805,6.029,0.026,0.003,0.002,101.0,105.0,101.0,13.4,1505.2,337.8,-0.8,1.8,2471.49,13.28,0.026,83.4
2023-06-29T06:10:03,42.805,6.029,0.044,0.011,0.028,103.0,103.0,100.0,13.3,1505.2,338.4,-0.7,1.8,2471.506,13.28,0.045,76.0
2023-06-29T06:13:03,42.805,6.029,0.034,0.006,0.009,102.0,106.0,101.0,13.4,1505.2,348.9,-0.7,1.7,2471.505,13.28,0.034,80.0
2023-06-29T06:16:03,42.805,6.029,0.02,-0.001,-0.057,101.0,105.0,101.0,13.4,1505.2,339.3,-0.8,1.8,2471.465,13.29,0.02,92.9
2023-06-29T06:19:03,42.805,6.029,0.071,-0.004,0.007,101.0,106.0,101.0,13.4,1505.2,338.8,-0.7,1.9,2471.5,13.29,0.071,93.2
2023-06-29T06:22:03,42.805,6.029,0.042,0.028,0.036,102.0,105.0,100.0,13.3,1505.2,322.1,-0.8,1.8,2471.46,13.29,0.05,56.3
2023-06-29T06:25:03,42.805,6.029,0.06,0.007,0.045,101.0,105.0,101.0,13.4,1505.2,342.3,-0.8,1.8,2471.488,13.29,0.06,83.3
2023-06-29T06:28:03,42.805,6.029,0.016,0.023,0.01,102.0,106.0,101.0,13.3,1505.2,328.8,-0.8,1.8,2471.482,13.29,0.028,34.8
2023-06-29T06:31:03,42.805,6.029,0.073,0.023,0.055,101.0,104.0,101.0,13.4,1505.2,344.4,-0.8,1.8,2471.479,13.29,0.076,72.5
2023-06-29T06:34:03,42.805,6.029,0.025,0.007,-0.01,102.0,104.0,101.0,13.4,1505.2,343.6,-0.7,1.8,2471.44,13.29,0.025,74.4
2023-06-29T06:37:03,42.805,6.029,0.027,-0.002,-0.012,101.0,106.0,101.0,13.4,1505.2,345.0,-0.7,1.9,2471.42,13.29,0.027,94.2
2023-06-29T06:40:03,42.805,6.029,0.033,0.002,-0.021,102.0,106.0,100.0,13.3,1505.2,323.8,-0.8,1.8,2471.417,13.29,0.033,86.5
2023-06-29T06:43:03,42.805,6.029,0.025,0.017,0.014,102.0,107.0,100.0,13.3,1505.2,335.7,-0.7,1.8,2471.476,13.29,0.03,55.8
2023-06-29T06:46:03,42.805,6.029,0.04,0.0,0.001,102.0,106.0,100.0,13.4,1505.2,335.3,-0.8,1.8,2471.403,13.29,0.04,90.0
2023-06-29T06:49:03,42.805,6.029,0.057,0.016,0.045,104.0,106.0,100.0,13.4,1505.2,333.4,-0.7,1.8,2471.444,13.29,0.059,74.3
2023-06-29T06:52:03,42.805,6.029,0.038,0.016,0.002,101.0,106.0,101.0,13.4,1505.2,341.2,-0.8,1.8,2471.423,13.29,0.041,67.2
2023-06-29T06:55:03,42.805,6.029,0.041,0.003,0.022,102.0,105.0,101.0,13.4,1505.2,343.4,-0.8,1.8,2471.444,13.29,0.041,85.8
2023-06-29T06:58:03,42.805,6.029,0.016,0.022,0.015,102.0,105.0,100.0,13.4,1505.2,328.6,-0.7,1.8,2471.452,13.29,0.027,36.0
2023-06-29T07:04:03,42.805,6.029,0.039,0.016,0.012,102.0,106.0,100.0,13.4,1505.2,324.5,-0.8,1.8,2471.448,13.28,0.042,67.7
2023-06-29T07:07:03,42.805,6.029,0.033,0.015,-0.017,101.0,106.0,101.0,13.4,1505.2,325.4,-0.8,1.8,2471.489,13.28,0.036,65.6
2023-06-29T07:10:03,42.805,6.029,0.027,0.006,-0.026,102.0,107.0,101.0,13.4,1505.2,325.7,-0.8,1.8,2471.484,13.28,0.027,77.5
2023-06-29T07:13:03,42.805,6.029,0.029,-0.007,-0.011,101.0,105.0,101.0,13.3,1505.2,339.4,-0.7,1.8,2471.448,13.28,0.029,103.6
2023-06-29T07:16:03,42.805,6.029,0.048,0.019,0.013,103.0,105.0,101.0,13.4,1505.2,330.8,-0.8,1.8,2471.404,13.29,0.051,68.4
2023-06-29T07:19:03,42.805,6.029,0.037,0.011,-0.032,101.0,106.0,101.0,13.4,1505.2,344.2,-0.8,1.8,2471.43,13.29,0.038,73.4
2023-06-29T07:22:03,42.805,6.029,0.027,0.017,-0.001,102.0,105.0,100.0,13.3,1505.2,322.7,-0.7,1.8,2471.44,13.29,0.031,57.8
2023-06-29T07:25:03,42.805,6.029,0.003,0.021,-0.013,102.0,106.0,102.0,13.4,1505.2,338.2,-0.8,1.8,2471.439,13.29,0.021,8.1
2023-06-29T07:28:03,42.805,6.029,0.04,0.006,-0.004,102.0,107.0,101.0,13.3,1505.2,329.8,-0.7,1.8,2471.434,13.29,0.04,81.5
2023-06-29T07:31:03,42.805,6.029,0.041,-0.026,-0.052,102.0,104.0,101.0,13.4,1505.2,329.2,-0.8,1.8,2471.442,13.29,0.048,122.4
2023-06-29T07:34:03,42.805,6.029,0.03,0.028,0.019,102.0,104.0,102.0,13.4,1505.2,321.0,-0.8,1.9,2471.433,13.29,0.041,47.0
2023-06-29T07:37:03,42.805,6.029,0.029,0.018,-0.001,101.0,105.0,101.0,13.3,1505.2,331.6,-0.8,1.8,2471.39,13.29,0.034,58.2
2023-06-29T07:40:03,42.805,6.029,0.02,0.022,0.0,101.0,105.0,101.0,13.4,1505.2,331.0,-0.8,1.8,2471.416,13.29,0.029,42.3
2023-06-29T07:43:03,42.805,6.029,0.026,0.016,0.012,102.0,106.0,100.0,13.4,1505.2,322.5,-0.8,1.8,2471.385,13.29,0.03,58.4
2023-06-29T07:46:03,42.805,6.029,0.064,0.016,0.059,101.0,105.0,101.0,13.4,1505.2,338.8,-0.8,1.9,2471.437,13.29,0.065,76.0
2023-06-29T07:49:03,42.805,6.029,0.015,0.017,-0.016,99.0,105.0,102.0,13.4,1505.2,330.3,-0.8,1.8,2471.406,13.29,0.022,41.4
2023-06-29T07:52:03,42.805,6.029,0.051,-0.009,0.043,101.0,105.0,100.0,13.4,1505.2,347.3,-0.8,1.8,2471.406,13.29,0.051,100.0
2023-06-29T07:55:03,42.805,6.029,0.026,0.025,0.006,102.0,106.0,100.0,13.3,1505.2,321.3,-0.7,1.8,2471.417,13.29,0.036,46.1
2023-06-29T07:58:03,42.805,6.029,0.013,0.026,0.0,102.0,107.0,99.0,13.4,1505.2,331.2,-0.8,1.8,2471.387,13.29,0.029,26.6
2023-06-29T08:04:03,42.805,6.029,0.028,0.03,0.042,102.0,105.0,100.0,13.3,1505.2,325.4,-0.8,1.8,2471.447,13.28,0.041,43.0
2023-06-29T08:07:03,42.805,6.029,-0.003,0.019,0.004,102.0,105.0,100.0,13.3,1505.2,342.3,-0.8,1.9,2471.46,13.28,0.019,351.0
2023-06-29T08:10:03,42.805,6.029,0.031,0.02,0.021,102.0,107.0,100.0,13.4,1505.2,351.0,-0.7,1.8,2471.427,13.28,0.036,57.2
2023-06-29T08:13:03,42.805,6.029,0.036,0.016,-0.025,103.0,105.0,100.0,13.4,1505.2,333.4,-0.8,1.8,2471.406,13.29,0.039,66.0
2023-06-29T08:16:03,42.805,6.029,0.036,0.008,0.013,101.0,105.0,102.0,13.4,1505.2,333.9,-0.8,1.8,2471.428,13.29,0.036,77.5
2023-06-29T08:19:03,42.805,6.029,0.036,0.051,0.031,101.0,106.0,101.0,13.3,1505.2,324.7,-0.8,1.8,2471.389,13.29,0.062,35.2
2023-06-29T08:22:03,42.805,6.029,0.049,-0.024,-0.035,102.0,106.0,101.0,13.4,1505.2,341.9,-0.8,1.8,2471.416,13.29,0.054,116.1
2023-06-29T08:25:03,42.805,6.029,0.0,0.016,-0.033,99.0,105.0,101.0,13.4,1505.2,332.9,-0.8,1.8,2471.369,13.29,0.016,0.0
2023-06-29T08:28:03,42.805,6.029,0.03,0.0,-0.011,101.0,106.0,101.0,13.4,1505.2,347.4,-0.8,1.8,2471.378,13.29,0.03,90.0
2023-06-29T08:31:03,42.805,6.029,0.026,0.017,-0.016,101.0,105.0,101.0,13.4,1505.2,330.5,-0.7,1.8,2471.411,13.29,0.031,56.8
2023-06-29T08:34:03,42.805,6.029,0.041,0.001,-0.009,101.0,105.0,101.0,13.4,1505.2,337.2,-0.8,1.8,2471.398,13.29,0.041,88.6
2023-06-29T08:37:03,42.805,6.029,0.033,0.022,-0.009,102.0,105.0,102.0,13.3,1505.2,331.2,-0.8,1.8,2471.401,13.29,0.039,56.3
2023-06-29T08:40:03,42.805,6.029,0.028,0.006,-0.014,101.0,106.0,102.0,13.4,1505.2,353.1,-0.7,1.8,2471.367,13.29,0.028,77.9
2023-06-29T08:43:03,42.805,6.029,0.011,0.036,0.003,102.0,105.0,101.0,13.4,1505.2,332.9,-0.7,1.8,2471.392,13.29,0.037,17.0
2023-06-29T08:46:03,42.805,6.029,0.013,0.022,-0.021,102.0,106.0,101.0,13.4,1505.2,334.4,-0.8,1.8,2471.351,13.29,0.025,30.6
2023-06-29T08:49:03,42.805,6.029,0.025,0.02,0.015,102.0,105.0,101.0,13.3,1505.2,348.0,-0.7,1.8,2471.342,13.29,0.032,51.3
2023-06-29T08:52:03,42.805,6.029,0.015,0.022,-0.019,102.0,105.0,101.0,13.3,1505.2,328.4,-0.7,1.8,2471.387,13.29,0.026,34.3
2023-06-29T08:55:03,42.805,6.029,0.037,0.012,-0.026,102.0,106.0,101.0,13.3,1505.2,337.2,-0.8,1.9,2471.403,13.29,0.038,72.0
2023-06-29T08:58:03,42.805,6.029,0.013,0.016,-0.025,101.0,106.0,101.0,13.4,1505.2,337.3,-0.8,1.8,2471.381,13.29,0.02,39.1
2023-06-29T09:04:03,42.805,6.029,0.053,0.02,0.014,103.0,105.0,101.0,13.4,1505.2,341.5,-0.8,1.9,2471.428,13.28,0.056,69.3
2023-06-29T09:07:03,42.805,6.029,0.034,0.002,-0.022,101.0,105.0,101.0,13.4,1505.2,343.4,-0.8,1.8,2471.418,13.28,0.034,86.6
2023-06-29T09:10:03,42.805,6.029,0.067,0.01,0.033,101.0,106.0,101.0,13.4,1505.2,330.3,-0.8,1.8,2471.41,13.28,0.067,81.5
2023-06-29T09:13:03,42.805,6.029,0.026,0.017,-0.011,102.0,106.0,100.0,13.4,1505.2,339.9,-0.8,1.8,2471.386,13.28,0.031,56.8
2023-06-29T09:16:03,42.805,6.029,0.038,-0.006,-0.005,101.0,105.0,102.0,13.3,1505.2,346.2,-0.8,1.8,2471.42,13.29,0.038,99.0
2023-06-29T09:19:03,42.805,6.029,0.031,0.024,-0.005,102.0,106.0,101.0,13.3,1505.2,325.3,-0.8,1.8,2471.385,13.29,0.039,52.3
2023-06-29T09:22:03,42.805,6.029,0.05,0.027,0.043,103.0,106.0,100.0,13.4,1505.2,346.8,-0.8,1.8,2471.373,13.29,0.056,61.6
2023-06-29T09:25:03,42.805,6.029,0.002,0.008,-0.045,103.0,106.0,100.0,13.3,1505.2,326.3,-0.8,1.8,2471.37,13.29,0.008,14.0
2023-06-29T09:28:03,42.805,6.029,0.025,0.02,0.001,102.0,106.0,100.0,13.4,1505.2,335.0,-0.7,1.8,2471.371,13.29,0.032,51.3
2023-06-29T09:31:03,42.805,6.029,0.006,0.006,-0.037,101.0,105.0,101.0,13.4,1505.2,343.6,-0.8,1.8,2471.37,13.29,0.008,45.0
2023-06-29T09:34:03,42.805,6.029,0.045,0.018,0.013,102.0,106.0,101.0,13.3,1505.2,339.5,-0.8,1.8,2471.372,13.29,0.048,68.2
2023-06-29T09:37:03,42.805,6.029,0.044,0.029,0.029,102.0,106.0,101.0,13.4,1505.2,329.0,-0.8,1.8,2471.354,13.29,0.052,56.6
2023-06-29T09:40:03,42.805,6.029,0.053,0.007,-0.019,101.0,107.0,100.0,13.4,1505.2,334.2,-0.8,1.8,2471.365,13.29,0.053,82.5
2023-06-29T09:43:03,42.805,6.029,0.037,0.043,0.0,102.0,107.0,100.0,13.4,1505.2,331.3,-0.7,1.8,2471.343,13.29,0.056,40.7
2023-06-29T09:46:03,42.805,6.029,0.023,0.015,0.0,101.0,105.0,101.0,13.4,1505.2,344.8,-0.8,1.8,2471.341,13.29,0.027,56.9
2023-06-29T09:49:03,42.805,6.029,0.029,0.016,0.0,101.0,105.0,101.0,13.4,1505.2,339.3,-0.8,1.8,2471.382,13.29,0.033,61.1
2023-06-29T09:52:03,42.805,6.029,0.039,0.032,0.011,101.0,106.0,101.0,13.4,1505.2,321.8,-0.8,1.8,2471.319,13.29,0.05,50.6
2023-06-29T09:55:03,42.805,6.029,0.047,0.007,0.01,102.0,107.0,101.0,13.4,1505.2,334.4,-0.8,1.8,2471.328,13.29,0.047,81.5
2023-06-29T09:58:03,42.805,6.029,0.021,0.032,-0.002,103.0,106.0,100.0,13.3,1505.2,339.1,-0.7,1.8,2471.377,13.29,0.038,33.3
2023-06-29T10:04:03,42.805,6.029,0.038,0.028,0.017,102.0,106.0,101.0,13.3,1505.2,328.8,-0.8,1.8,2471.374,13.28,0.047,53.6
2023-06-29T10:07:03,42.805,6.029,0.051,0.021,0.01,102.0,106.0,101.0,13.3,1505.2,340.0,-0.8,1.8,2471.407,13.28,0.055,67.6